Location: *
(0.1100°N, 5.5000°E)
Time: 22:38:31
(UTC+00:00)

Daily predictions for brighter satellites

Satellite Brightness Start Highest point End
(mag) Time Altitude Azimuth Time Altitude Azimuth Time Altitude Azimuth
ARIANE 5 R/B 4.1 17:52:15 10° W 17:56:05 85° N 18:08:30 10° E
Meteor 2-2 Rocket 4.4 18:07:32 10° N 18:13:00 53° E 18:18:28 10° SSE
SWIFT 2.5 18:12:43 10° WSW 18:16:58 66° SSE 18:21:12 10° ENE
YAOGAN 1 3.2 18:13:03 10° S 18:17:19 63° WSW 18:21:35 10° NNW
Cosmos 2263 4.2 18:12:08 10° NNW 18:17:49 82° ENE 18:23:29 10° SSE
ATLAS CENTAUR R/B 2.0 18:17:52 10° S 18:21:26 32° ESE 18:24:49 10° NE
Cosmos 2369 Rocket 3.0 18:15:57 10° NNW 18:21:31 58° WSW 18:27:07 10° S
MONITOR-E 4.3 18:19:04 10° S 18:22:07 79° W 18:25:08 10° NNW
CZ-3C R/B 0.3 18:20:07 10° WSW 18:22:13 88° SSE 18:27:53 11° ENE
XTE 3.2 18:21:57 10° SW 18:24:30 44° SSE 18:26:43 12° E
FENGYUN 3A 3.6 18:21:35 10° SSE 18:26:56 81° ENE 18:32:16 10° N
ERS-2 2.6 18:23:44 10° SSE 18:27:09 37° ENE 18:30:34 10° N
ARIANE 5 DEB (SYLDA) 3.6 18:20:23 10° WSW 18:27:52 52° S 18:30:31 10° ESE
Cosmos 1943 Rocket 2.3 18:24:10 10° NNW 18:29:41 82° WSW 18:35:11 10° SSE
SJ-6B 4.4 18:30:29 10° ESE 18:32:56 16° E 18:34:13 14° ENE
ARIANE R/B 4.1 18:30:57 10° W 18:34:40 68° S 18:45:47 10° E
Iridium 37 3.0 18:34:38 10° N 18:36:36 60° E 18:38:45 10° S
ARIANE 5 DEB (SYLDA) 3.4 18:35:55 10° SW 18:37:36 21° S 18:39:28 11° ESE
Cosmos 2082 Rocket 2.3 18:32:52 10° S 18:38:29 59° ESE 18:44:03 10° NNE
USA 267 3.6 18:35:43 10° SSE 18:42:15 71° SW 18:48:47 10° NW
Cosmos 1151 Rocket 3.4 18:38:30 10° NNE 18:42:35 40° E 18:46:40 10° SSE
SPOT 3 Rocket 3.6 18:39:02 10° S 18:44:12 84° WSW 18:49:20 10° NNW
Cosmos 1666 Rocket 4.4 18:41:34 10° SSE 18:45:27 30° E 18:47:46 19° NE
Thor Agena Rocket 4.4 18:41:29 10° N 18:46:30 52° WNW 18:51:29 10° SSW
Ariane H10 3.7 18:43:44 10° W 18:56:01 75° N 18:57:56 29° ENE
FengYun 1-2 T 4.2 18:55:16 10° SSE 19:00:56 75° ENE 19:06:33 10° N
ARIANE 5 DEB (SYLDA) 2.8 19:00:20 10° W 19:01:01 20° W 19:01:01 20° W
EUTELSAT W3B 3.3 18:54:37 10° W 19:01:57 68° S 19:02:49 39° ESE
ARIANE 5 DEB (SYLDA) 2.2 18:57:05 10° W 19:02:00 62° N 19:02:28 50° NE
Cosmos 1633 Rocket 3.4 18:59:36 10° SSE 19:03:42 41° E 19:04:37 36° ENE
HJ-1C 3.3 19:01:22 10° SSE 19:04:40 57° E 19:05:33 41° NNE
Cosmos 1833 Rocket 3.1 19:00:33 10° SSW 19:06:06 63° WNW 19:11:37 10° N
ARIANE 5 DEB (SYLDA) 3.1 18:57:39 10° W 19:08:59 52° N 19:10:13 37° NE
Cosmos 1777 Rocket 4.1 19:06:10 10° NNW 19:11:25 80° WSW 19:16:42 10° S
ATLAS 2AS CENTAUR R/B 3.9 19:04:53 10° NW 19:11:26 42° WSW 19:17:28 10° S
H-2A R/B 3.9 19:08:11 10° S 19:11:45 43° W 19:15:19 10° NNW
Cosmos 1515 Rocket 4.0 19:08:31 10° NNW 19:12:46 60° W 19:17:03 10° S
Spelda 30 2.2 19:11:13 10° W 19:15:22 70° S 19:15:25 70° S
Ariane H10 3.7 19:12:33 10° WSW 19:15:45 59° SSE 19:18:14 31° E
ARGOS Delta rocket 4.2 19:17:03 12° N 19:22:03 76° W 19:27:11 10° SSW
Timation 2 Rocket 4.5 19:18:59 10° S 19:25:26 44° ESE 19:26:28 41° E
Atlas Centaur 2 3.4 19:19:18 10° WSW 19:26:32 43° NW 19:29:16 29° NNE
Sich 1 3.5 19:22:38 10° SSW 19:26:56 60° W 19:29:11 26° NNW
Cosmos 841 Rocket 4.3 19:22:40 10° SSW 19:27:45 50° WNW 19:31:44 16° N
NOSS 3-4 (A) 3.9 19:27:17 10° NNW 19:34:48 61° ENE 19:42:34 10° SE
NOSS 3-4 (C) 3.9 19:27:23 10° N 19:34:54 60° ENE 19:42:40 10° SE
Envisat 2.8 19:31:25 10° SSE 19:36:19 72° E 19:36:19 72° E
Meteor 2-3 Rocket 3.9 19:32:08 10° S 19:36:49 50° SE 19:36:49 50° SE
COSMOS 2487 3.7 19:34:37 10° SSW 19:37:03 39° SW 19:37:03 39° SW
Cosmos 292 Rocket 3.9 19:40:38 10° SSW 19:44:43 66° SSW 19:44:43 66° SSW
ARIANE 44L R/B 4.2 19:43:48 10° WSW 19:46:56 22° SSW 19:46:56 22° SSW
ARIANE 5 R/B 2.9 19:44:27 10° W 19:47:51 79° N 19:48:46 65° ENE
ARIANE 5 DEB (SYLDA) 4.3 19:45:04 10° W 19:50:13 40° NW 19:50:13 40° NW
SWIFT 4.5 19:55:09 10° W 19:57:00 21° WNW 19:57:00 21° WNW
Sylda 5 4.0 19:55:55 10° WNW 19:57:24 22° WNW 19:57:24 22° WNW
